Wetterdaten: Dienstag, 19.04.2016
Datum Zeit Auen-Temp. Temp gefhlt Luftfeuchte Luftdruck Regen Wind Richtung Richtung Sonnenschein Taupunkt Windben
19.04.2016 00:00 3,5 C 3,3 C 90 % 1021,4 hPa 0,0 mm 4,8 km/h (1 Bft) W-SW 247 0 min 2,0 C 4,2 km/h (1 Bft)
19.04.2016 00:05 3,5 C 3,3 C 90 % 1021,4 hPa 0,0 mm 4,8 km/h (1 Bft) W-SW 247 0 min 2,0 C 5,7 km/h (1 Bft)
19.04.2016 00:10 3,5 C 3,0 C 90 % 1021,4 hPa 0,0 mm 7,2 km/h (2 Bft) W-SW 247 0 min 2,0 C 8,3 km/h (2 Bft)
19.04.2016 00:15 3,5 C 2,9 C 90 % 1021,4 hPa 0,0 mm 8,6 km/h (2 Bft) W-SW 247 0 min 2,0 C 17,9 km/h (3 Bft)
19.04.2016 00:20 3,5 C 2,9 C 90 % 1021,4 hPa 0,0 mm 8,3 km/h (2 Bft) W-SW 247 0 min 2,0 C 6,6 km/h (2 Bft)
19.04.2016 00:25 3,5 C 3,2 C 90 % 1021,4 hPa 0,0 mm 5,7 km/h (1 Bft) W-SW 247 0 min 2,0 C 3,3 km/h (1 Bft)
19.04.2016 00:30 3,5 C 3,3 C 90 % 1021,5 hPa 0,0 mm 4,5 km/h (1 Bft) SW 225 0 min 2,0 C 5,1 km/h (1 Bft)
19.04.2016 00:35 3,5 C 3,3 C 90 % 1021,5 hPa 0,0 mm 5,1 km/h (1 Bft) SW 225 0 min 2,0 C 9,2 km/h (2 Bft)
19.04.2016 00:40 3,5 C 3,1 C 90 % 1021,5 hPa 0,0 mm 6,6 km/h (2 Bft) S 180 0 min 2,0 C 15,5 km/h (3 Bft)
19.04.2016 00:45 3,5 C 2,9 C 90 % 1021,5 hPa 0,0 mm 8,9 km/h (2 Bft) W-SW 247 0 min 2,0 C 11,6 km/h (2 Bft)
19.04.2016 00:50 3,5 C 2,9 C 90 % 1021,6 hPa 0,0 mm 8,3 km/h (2 Bft) W-SW 247 0 min 2,0 C 6,6 km/h (2 Bft)
19.04.2016 00:55 3,5 C 3,0 C 90 % 1021,6 hPa 0,0 mm 7,5 km/h (2 Bft) SW 225 0 min 2,0 C 11,3 km/h (2 Bft)
19.04.2016 01:00 3,6 C 3,0 C 90 % 1021,6 hPa 0,0 mm 8,3 km/h (2 Bft) W-SW 247 0 min 2,1 C 7,5 km/h (2 Bft)
19.04.2016 01:05 3,6 C 2,9 C 90 % 1021,6 hPa 0,0 mm 9,8 km/h (2 Bft) S-SW 202 0 min 2,1 C 13,4 km/h (3 Bft)
19.04.2016 01:10 3,6 C 2,9 C 90 % 1021,7 hPa 0,0 mm 9,8 km/h (2 Bft) S 180 0 min 2,1 C 11,9 km/h (2 Bft)
19.04.2016 01:15 3,7 C 3,0 C 90 % 1021,7 hPa 0,0 mm 10,4 km/h (2 Bft) SW 225 0 min 2,2 C 18,2 km/h (3 Bft)
19.04.2016 01:20 3,7 C 3,0 C 90 % 1021,7 hPa 0,0 mm 9,5 km/h (2 Bft) O 90 0 min 2,2 C 3,0 km/h (1 Bft)
19.04.2016 01:25 3,7 C 3,4 C 90 % 1021,7 hPa 0,0 mm 6,0 km/h (2 Bft) W 270 0 min 2,2 C 4,2 km/h (1 Bft)
19.04.2016 01:28 3,7 C 3,4 C 90 % 1021,9 hPa 0,0 mm 5,4 km/h (1 Bft) S-SW 202 0 min 2,2 C 7,2 km/h (2 Bft)
19.04.2016 01:30 3,7 C 3,4 C 90 % 1021,9 hPa 0,0 mm 5,4 km/h (1 Bft) S-SW 202 0 min 2,2 C 7,2 km/h (2 Bft)
19.04.2016 01:35 3,7 C 3,3 C 90 % 1021,9 hPa 0,0 mm 6,6 km/h (2 Bft) W-SW 247 0 min 2,2 C 7,5 km/h (2 Bft)
19.04.2016 01:40 3,7 C 3,4 C 90 % 1021,9 hPa 0,0 mm 5,7 km/h (1 Bft) W-SW 247 0 min 2,2 C 3,0 km/h (1 Bft)
19.04.2016 01:45 3,7 C 3,4 C 90 % 1021,9 hPa 0,0 mm 6,0 km/h (2 Bft) SW 225 0 min 2,2 C 3,9 km/h (1 Bft)
19.04.2016 01:50 3,7 C 3,5 C 90 % 1021,8 hPa 0,0 mm 5,1 km/h (1 Bft) W 270 0 min 2,2 C 0,0 km/h (0 Bft)
19.04.2016 01:55 3,6 C 3,4 C 90 % 1021,8 hPa 0,0 mm 2,7 km/h (1 Bft) SW 225 0 min 2,1 C 7,5 km/h (2 Bft)
19.04.2016 02:00 3,6 C 3,4 C 90 % 1021,8 hPa 0,0 mm 3,0 km/h (1 Bft) SW 225 0 min 2,1 C 7,7 km/h (2 Bft)
19.04.2016 02:05 3,6 C 3,3 C 90 % 1021,8 hPa 0,0 mm 6,0 km/h (2 Bft) S-SW 202 0 min 2,1 C 6,0 km/h (2 Bft)
19.04.2016 02:10 3,7 C 3,2 C 90 % 1021,8 hPa 0,0 mm 6,9 km/h (2 Bft) SO 135 0 min 2,2 C 7,2 km/h (2 Bft)
19.04.2016 02:15 3,6 C 3,3 C 90 % 1021,8 hPa 0,0 mm 6,0 km/h (2 Bft) W-SW 247 0 min 2,1 C 8,3 km/h (2 Bft)
19.04.2016 02:20 3,6 C 3,4 C 90 % 1021,8 hPa 0,0 mm 4,2 km/h (1 Bft) S-SW 202 0 min 2,1 C 0,0 km/h (0 Bft)
19.04.2016 02:25 3,6 C 3,4 C 90 % 1021,8 hPa 0,0 mm 3,6 km/h (1 Bft) SW 225 0 min 2,1 C 13,4 km/h (3 Bft)
19.04.2016 02:30 3,7 C 3,5 C 90 % 1021,6 hPa 0,0 mm 4,8 km/h (1 Bft) S-SO 157 0 min 2,2 C 9,5 km/h (2 Bft)
19.04.2016 02:35 3,7 C 3,2 C 90 % 1021,6 hPa 0,0 mm 7,7 km/h (2 Bft) S 180 0 min 2,2 C 6,9 km/h (2 Bft)
19.04.2016 02:40 3,7 C 3,3 C 90 % 1021,6 hPa 0,0 mm 6,6 km/h (2 Bft) W-SW 247 0 min 2,2 C 7,7 km/h (2 Bft)
19.04.2016 02:45 3,7 C 3,5 C 90 % 1021,6 hPa 0,0 mm 3,6 km/h (1 Bft) W-SW 247 0 min 2,2 C 4,5 km/h (1 Bft)
19.04.2016 02:50 3,6 C 3,4 C 90 % 1021,5 hPa 0,0 mm 1,5 km/h (1 Bft) S 180 0 min 2,1 C 0,0 km/h (0 Bft)
19.04.2016 02:55 3,6 C 3,4 C 90 % 1021,5 hPa 0,0 mm 1,8 km/h (1 Bft) SW 225 0 min 2,1 C 11,3 km/h (2 Bft)
19.04.2016 03:00 3,6 C 3,4 C 90 % 1021,5 hPa 0,0 mm 3,3 km/h (1 Bft) NO 45 0 min 2,1 C 0,0 km/h (0 Bft)
19.04.2016 03:05 3,6 C 3,4 C 90 % 1021,5 hPa 0,0 mm 3,0 km/h (1 Bft) W-NW 292 0 min 2,1 C 0,0 km/h (0 Bft)
19.04.2016 03:10 3,6 C 3,4 C 90 % 1021,6 hPa 0,0 mm 0,6 km/h (0 Bft) NO 45 0 min 2,1 C 0,0 km/h (0 Bft)
19.04.2016 03:15 3,5 C 3,3 C 90 % 1021,6 hPa 0,0 mm 0,6 km/h (0 Bft) NW 315 0 min 2,0 C 0,0 km/h (0 Bft)
19.04.2016 03:20 3,5 C 3,3 C 90 % 1021,6 hPa 0,0 mm 1,8 km/h (1 Bft) W-NW 292 0 min 2,0 C 4,5 km/h (1 Bft)
19.04.2016 03:25 3,5 C 3,3 C 90 % 1021,6 hPa 0,0 mm 2,7 km/h (1 Bft) S 180 0 min 2,0 C 3,3 km/h (1 Bft)
19.04.2016 03:30 3,5 C 3,3 C 90 % 1021,6 hPa 0,0 mm 2,4 km/h (1 Bft) SW 225 0 min 2,0 C 6,3 km/h (2 Bft)
19.04.2016 03:35 3,5 C 3,3 C 90 % 1021,6 hPa 0,0 mm 4,8 km/h (1 Bft) W-SW 247 0 min 2,0 C 12,5 km/h (3 Bft)
19.04.2016 03:40 3,5 C 3,3 C 90 % 1021,6 hPa 0,0 mm 4,8 km/h (1 Bft) O-SO 112 0 min 2,0 C 0,0 km/h (0 Bft)
19.04.2016 03:45 3,5 C 3,3 C 90 % 1021,6 hPa 0,0 mm 4,2 km/h (1 Bft) S 180 0 min 2,0 C 3,9 km/h (1 Bft)
19.04.2016 03:50 3,5 C 3,3 C 90 % 1021,6 hPa 0,0 mm 2,7 km/h (1 Bft) SW 225 0 min 2,0 C 4,2 km/h (1 Bft)
19.04.2016 03:55 3,5 C 3,3 C 90 % 1021,6 hPa 0,0 mm 3,3 km/h (1 Bft) S 180 0 min 2,0 C 0,0 km/h (0 Bft)
19.04.2016 04:00 3,5 C 3,3 C 90 % 1021,6 hPa 0,0 mm 2,7 km/h (1 Bft) S 180 0 min 2,0 C 0,0 km/h (0 Bft)
19.04.2016 04:05 3,5 C 3,3 C 90 % 1021,6 hPa 0,0 mm 1,2 km/h (1 Bft) S-SO 157 0 min 2,0 C 0,0 km/h (0 Bft)
19.04.2016 04:10 3,5 C 3,3 C 90 % 1021,9 hPa 0,0 mm 1,8 km/h (1 Bft) S 180 0 min 2,0 C 6,6 km/h (2 Bft)
19.04.2016 04:15 3,5 C 3,3 C 91 % 1021,9 hPa 0,0 mm 2,1 km/h (1 Bft) SO 135 0 min 2,2 C 0,0 km/h (0 Bft)
19.04.2016 04:20 3,5 C 3,3 C 91 % 1021,9 hPa 0,0 mm 2,1 km/h (1 Bft) S 180 0 min 2,2 C 6,9 km/h (2 Bft)
19.04.2016 04:25 3,5 C 3,3 C 91 % 1021,9 hPa 0,0 mm 2,1 km/h (1 Bft) S-SO 157 0 min 2,2 C 0,0 km/h (0 Bft)
19.04.2016 04:28 3,5 C 3,3 C 91 % 1021,7 hPa 0,0 mm 2,1 km/h (1 Bft) S-SO 157 0 min 2,2 C 0,0 km/h (0 Bft)
19.04.2016 04:31 3,5 C 3,3 C 91 % 1021,7 hPa 0,0 mm 2,1 km/h (1 Bft) S-SO 157 0 min 2,2 C 0,0 km/h (0 Bft)
19.04.2016 04:35 3,5 C 3,3 C 91 % 1021,7 hPa 0,0 mm 0,3 km/h (0 Bft) O-SO 112 0 min 2,2 C 0,0 km/h (0 Bft)
19.04.2016 04:40 3,5 C 3,3 C 91 % 1021,7 hPa 0,0 mm 0,0 km/h (0 Bft) W-SW 247 0 min 2,2 C 0,0 km/h (0 Bft)
19.04.2016 04:45 3,5 C 3,3 C 91 % 1021,7 hPa 0,0 mm 0,0 km/h (0 Bft) SO 135 0 min 2,2 C 0,0 km/h (0 Bft)
19.04.2016 04:50 3,5 C 3,3 C 91 % 1022,0 hPa 0,0 mm 0,0 km/h (0 Bft) SO 135 0 min 2,2 C 0,0 km/h (0 Bft)
19.04.2016 04:55 3,5 C 3,3 C 91 % 1022,0 hPa 0,0 mm 0,0 km/h (0 Bft) O-NO 67 0 min 2,2 C 0,0 km/h (0 Bft)
19.04.2016 05:00 3,5 C 3,3 C 91 % 1022,0 hPa 0,0 mm 0,0 km/h (0 Bft) O-SO 112 0 min 2,2 C 0,0 km/h (0 Bft)
19.04.2016 05:05 3,4 C 3,2 C 91 % 1022,0 hPa 0,0 mm 0,0 km/h (0 Bft) SO 135 0 min 2,1 C 0,0 km/h (0 Bft)
19.04.2016 05:10 3,4 C 3,2 C 91 % 1021,9 hPa 0,0 mm 0,0 km/h (0 Bft) NO 45 0 min 2,1 C 0,0 km/h (0 Bft)
19.04.2016 05:15 3,3 C 3,1 C 91 % 1021,9 hPa 0,0 mm 0,0 km/h (0 Bft) O-SO 112 0 min 2,0 C 0,0 km/h (0 Bft)
19.04.2016 05:20 3,3 C 3,1 C 91 % 1021,9 hPa 0,0 mm 0,0 km/h (0 Bft) S 180 0 min 2,0 C 0,0 km/h (0 Bft)
19.04.2016 05:25 3,3 C 3,1 C 91 % 1021,9 hPa 0,0 mm 0,6 km/h (0 Bft) S 180 0 min 2,0 C 0,0 km/h (0 Bft)
19.04.2016 05:30 3,3 C 3,1 C 91 % 1022,1 hPa 0,0 mm 1,5 km/h (1 Bft) S-SO 157 0 min 2,0 C 3,9 km/h (1 Bft)
19.04.2016 05:35 3,3 C 3,1 C 91 % 1022,1 hPa 0,0 mm 1,2 km/h (1 Bft) SO 135 0 min 2,0 C 0,0 km/h (0 Bft)
19.04.2016 05:40 3,4 C 3,2 C 91 % 1022,1 hPa 0,0 mm 0,6 km/h (0 Bft) O-SO 112 0 min 2,1 C 0,0 km/h (0 Bft)
19.04.2016 05:45 3,3 C 3,1 C 91 % 1022,1 hPa 0,0 mm 0,0 km/h (0 Bft) S 180 0 min 2,0 C 0,0 km/h (0 Bft)
19.04.2016 05:50 3,3 C 3,1 C 91 % 1022,2 hPa 0,0 mm 0,0 km/h (0 Bft) SO 135 0 min 2,0 C 3,0 km/h (1 Bft)
19.04.2016 05:55 3,4 C 3,2 C 91 % 1022,2 hPa 0,0 mm 1,5 km/h (1 Bft) S 180 0 min 2,1 C 3,6 km/h (1 Bft)
19.04.2016 06:00 3,4 C 3,2 C 91 % 1022,2 hPa 0,0 mm 1,5 km/h (1 Bft) W-SW 247 0 min 2,1 C 0,0 km/h (0 Bft)
19.04.2016 06:05 3,4 C 3,2 C 91 % 1022,2 hPa 0,0 mm 0,3 km/h (0 Bft) S 180 0 min 2,1 C 0,0 km/h (0 Bft)
19.04.2016 06:10 3,4 C 3,2 C 91 % 1022,3 hPa 0,0 mm 0,3 km/h (0 Bft) S-SO 157 0 min 2,1 C 4,2 km/h (1 Bft)
19.04.2016 06:15 3,4 C 3,2 C 92 % 1022,3 hPa 0,0 mm 0,3 km/h (0 Bft) S-SO 157 0 min 2,2 C 0,0 km/h (0 Bft)
19.04.2016 06:20 3,4 C 3,2 C 92 % 1022,3 hPa 0,0 mm 0,3 km/h (0 Bft) S-SO 157 0 min 2,2 C 0,0 km/h (0 Bft)
19.04.2016 06:25 3,4 C 3,2 C 92 % 1022,3 hPa 0,0 mm 0,6 km/h (0 Bft) S-SW 202 0 min 2,2 C 4,2 km/h (1 Bft)
19.04.2016 06:30 3,4 C 3,2 C 92 % 1022,6 hPa 0,0 mm 0,6 km/h (0 Bft) S-SW 202 0 min 2,2 C 0,0 km/h (0 Bft)
19.04.2016 06:35 3,4 C 3,2 C 92 % 1022,6 hPa 0,0 mm 0,3 km/h (0 Bft) SO 135 0 min 2,2 C 0,0 km/h (0 Bft)
19.04.2016 06:40 3,4 C 3,2 C 92 % 1022,6 hPa 0,0 mm 0,0 km/h (0 Bft) S 180 0 min 2,2 C 0,0 km/h (0 Bft)
19.04.2016 06:45 3,4 C 3,2 C 92 % 1022,6 hPa 0,0 mm 0,0 km/h (0 Bft) W 270 0 min 2,2 C 0,0 km/h (0 Bft)
19.04.2016 06:50 3,4 C 3,2 C 92 % 1022,8 hPa 0,0 mm 0,0 km/h (0 Bft) O-SO 112 0 min 2,2 C 0,0 km/h (0 Bft)
19.04.2016 06:55 3,4 C 3,2 C 92 % 1022,8 hPa 0,0 mm 0,0 km/h (0 Bft) O-NO 67 0 min 2,2 C 0,0 km/h (0 Bft)
19.04.2016 07:00 3,4 C 3,2 C 92 % 1022,8 hPa 0,0 mm 0,0 km/h (0 Bft) S 180 0 min 2,2 C 0,0 km/h (0 Bft)
19.04.2016 07:05 3,4 C 3,3 C 88 % 1022,8 hPa 0,0 mm 0,9 km/h (0 Bft) S 180 0 min 1,6 C 5,4 km/h (1 Bft)
19.04.2016 07:10 3,4 C 3,3 C 88 % 1022,9 hPa 0,0 mm 0,9 km/h (0 Bft) W-SW 247 0 min 1,6 C 0,0 km/h (0 Bft)
19.04.2016 07:15 3,5 C 3,3 C 92 % 1022,9 hPa 0,0 mm 0,6 km/h (0 Bft) W-NW 292 0 min 2,3 C 0,0 km/h (0 Bft)
19.04.2016 07:20 3,5 C 3,4 C 88 % 1022,9 hPa 0,0 mm 0,3 km/h (0 Bft) W-SW 247 0 min 1,7 C 5,4 km/h (1 Bft)
19.04.2016 07:25 3,6 C 3,5 C 88 % 1022,9 hPa 0,0 mm 1,5 km/h (1 Bft) S-SW 202 0 min 1,8 C 3,0 km/h (1 Bft)
19.04.2016 07:30 3,6 C 3,5 C 88 % 1022,9 hPa 0,0 mm 1,5 km/h (1 Bft) O-NO 67 0 min 1,8 C 0,0 km/h (0 Bft)
19.04.2016 07:32 3,6 C 3,5 C 88 % 1022,9 hPa 0,0 mm 1,5 km/h (1 Bft) O-NO 67 0 min 1,8 C 0,0 km/h (0 Bft)
19.04.2016 07:35 3,7 C 3,6 C 88 % 1022,9 hPa 0,0 mm 0,3 km/h (0 Bft) O-NO 67 0 min 1,9 C 0,0 km/h (0 Bft)
19.04.2016 07:40 3,7 C 3,7 C 88 % 1022,9 hPa 0,0 mm 0,0 km/h (0 Bft) O-NO 67 0 min 1,9 C 0,0 km/h (0 Bft)
19.04.2016 07:45 3,7 C 3,9 C 88 % 1022,9 hPa 0,0 mm 0,0 km/h (0 Bft) O-NO 67 0 min 1,9 C 0,0 km/h (0 Bft)
19.04.2016 07:50 3,7 C 3,9 C 88 % 1023,1 hPa 0,0 mm 0,0 km/h (0 Bft) O 90 0 min 1,9 C 0,0 km/h (0 Bft)
19.04.2016 07:55 3,9 C 4,1 C 88 % 1023,1 hPa 0,0 mm 0,0 km/h (0 Bft) O-NO 67 0 min 2,1 C 0,0 km/h (0 Bft)
19.04.2016 08:00 3,9 C 4,2 C 88 % 1023,1 hPa 0,0 mm 0,0 km/h (0 Bft) O-SO 112 0 min 2,1 C 0,0 km/h (0 Bft)
19.04.2016 08:05 3,9 C 4,6 C 88 % 1023,1 hPa 0,0 mm 0,0 km/h (0 Bft) W-SW 247 0 min 2,1 C 0,0 km/h (0 Bft)
19.04.2016 08:10 3,9 C 4,8 C 88 % 1023,1 hPa 0,0 mm 0,3 km/h (0 Bft) W-SW 247 0 min 2,1 C 3,0 km/h (1 Bft)
19.04.2016 08:15 4,4 C 5,1 C 88 % 1023,1 hPa 0,0 mm 1,2 km/h (1 Bft) W-SW 247 0 min 2,6 C 6,9 km/h (2 Bft)
19.04.2016 08:20 4,6 C 5,3 C 88 % 1023,1 hPa 0,0 mm 1,5 km/h (1 Bft) W-SW 247 0 min 2,8 C 3,3 km/h (1 Bft)
19.04.2016 08:25 4,7 C 5,7 C 88 % 1023,1 hPa 0,0 mm 1,2 km/h (1 Bft) W-SW 247 0 min 2,9 C 0,0 km/h (0 Bft)
19.04.2016 08:30 4,7 C 5,9 C 88 % 1023,1 hPa 0,0 mm 1,5 km/h (1 Bft) W-NW 292 0 min 2,9 C 4,2 km/h (1 Bft)
19.04.2016 08:35 5,0 C 6,4 C 88 % 1023,1 hPa 0,0 mm 1,5 km/h (1 Bft) NW 315 0 min 3,2 C 0,0 km/h (0 Bft)
19.04.2016 08:40 5,2 C 6,8 C 88 % 1023,1 hPa 0,0 mm 0,9 km/h (0 Bft) SW 225 0 min 3,4 C 0,0 km/h (0 Bft)
19.04.2016 08:45 5,4 C 7,3 C 88 % 1023,1 hPa 0,0 mm 1,5 km/h (1 Bft) W-NW 292 0 min 3,6 C 3,9 km/h (1 Bft)
19.04.2016 08:50 5,6 C 7,6 C 88 % 1023,1 hPa 0,0 mm 3,0 km/h (1 Bft) NW 315 0 min 3,8 C 6,3 km/h (2 Bft)
19.04.2016 08:55 5,6 C 7,8 C 87 % 1023,1 hPa 0,0 mm 4,8 km/h (1 Bft) N-NW 337 0 min 3,6 C 0,0 km/h (0 Bft)
19.04.2016 09:00 5,6 C 7,9 C 87 % 1023,1 hPa 0,0 mm 4,8 km/h (1 Bft) NW 315 0 min 3,6 C 5,7 km/h (1 Bft)
19.04.2016 09:05 5,9 C 8,2 C 87 % 1023,1 hPa 0,0 mm 2,7 km/h (1 Bft) O-NO 67 0 min 3,9 C 0,0 km/h (0 Bft)
19.04.2016 09:10 5,9 C 8,4 C 87 % 1023,3 hPa 0,0 mm 2,4 km/h (1 Bft) N-NW 337 0 min 3,9 C 4,8 km/h (1 Bft)
19.04.2016 09:15 6,4 C 9,2 C 86 % 1023,3 hPa 0,0 mm 3,6 km/h (1 Bft) O-NO 67 0 min 4,2 C 0,0 km/h (0 Bft)
19.04.2016 09:20 6,5 C 9,4 C 86 % 1023,3 hPa 0,0 mm 5,4 km/h (1 Bft) W 270 0 min 4,3 C 6,3 km/h (2 Bft)
19.04.2016 09:25 6,8 C 9,9 C 86 % 1023,3 hPa 0,0 mm 5,1 km/h (1 Bft) NW 315 0 min 4,6 C 11,0 km/h (2 Bft)
19.04.2016 09:30 6,9 C 10,1 C 86 % 1023,4 hPa 0,0 mm 6,0 km/h (2 Bft) NW 315 5 min 4,7 C 8,0 km/h (2 Bft)
19.04.2016 09:35 6,8 C 9,7 C 85 % 1023,4 hPa 0,0 mm 7,2 km/h (2 Bft) NW 315 0 min 4,5 C 8,3 km/h (2 Bft)
19.04.2016 09:40 6,8 C 9,6 C 85 % 1023,4 hPa 0,0 mm 5,7 km/h (1 Bft) NW 315 0 min 4,5 C 7,2 km/h (2 Bft)
19.04.2016 09:45 7,0 C 10,0 C 84 % 1023,4 hPa 0,0 mm 4,2 km/h (1 Bft) W-NW 292 0 min 4,5 C 7,5 km/h (2 Bft)
19.04.2016 09:50 7,0 C 10,3 C 84 % 1023,7 hPa 0,0 mm 5,1 km/h (1 Bft) W-NW 292 5 min 4,5 C 9,8 km/h (2 Bft)
19.04.2016 09:55 6,9 C 9,7 C 83 % 1023,7 hPa 0,0 mm 5,7 km/h (1 Bft) W 270 5 min 4,2 C 5,1 km/h (1 Bft)
19.04.2016 10:00 6,9 C 9,5 C 83 % 1023,7 hPa 0,0 mm 4,8 km/h (1 Bft) W 270 0 min 4,2 C 5,4 km/h (1 Bft)
19.04.2016 10:05 6,8 C 9,3 C 82 % 1023,7 hPa 0,0 mm 3,0 km/h (1 Bft) NW 315 0 min 3,9 C 0,0 km/h (0 Bft)
19.04.2016 10:10 6,9 C 9,5 C 82 % 1023,8 hPa 0,0 mm 2,1 km/h (1 Bft) N-NO 22 0 min 4,0 C 0,0 km/h (0 Bft)
19.04.2016 10:15 6,8 C 9,4 C 81 % 1023,8 hPa 0,0 mm 1,2 km/h (1 Bft) N 360 0 min 3,8 C 0,0 km/h (0 Bft)
19.04.2016 10:20 6,9 C 9,5 C 81 % 1023,8 hPa 0,0 mm 1,2 km/h (1 Bft) NW 315 0 min 3,9 C 4,2 km/h (1 Bft)
19.04.2016 10:25 7,0 C 9,7 C 80 % 1023,8 hPa 0,0 mm 1,2 km/h (1 Bft) SW 225 0 min 3,8 C 5,7 km/h (1 Bft)
19.04.2016 10:30 6,9 C 9,5 C 80 % 1023,8 hPa 0,0 mm 2,4 km/h (1 Bft) S 180 0 min 3,7 C 0,0 km/h (0 Bft)
19.04.2016 10:33 6,9 C 9,5 C 80 % 1023,8 hPa 0,0 mm 2,4 km/h (1 Bft) S 180 0 min 3,7 C 0,0 km/h (0 Bft)
19.04.2016 10:35 6,7 C 9,3 C 80 % 1023,8 hPa 0,0 mm 1,8 km/h (1 Bft) SW 225 0 min 3,5 C 3,0 km/h (1 Bft)
19.04.2016 10:40 6,7 C 9,4 C 80 % 1023,8 hPa 0,0 mm 0,3 km/h (0 Bft) S-SW 202 0 min 3,5 C 0,0 km/h (0 Bft)
19.04.2016 10:45 6,9 C 9,9 C 79 % 1023,8 hPa 0,0 mm 0,0 km/h (0 Bft) S-SO 157 5 min 3,5 C 0,0 km/h (0 Bft)
19.04.2016 10:50 7,0 C 10,2 C 78 % 1024,0 hPa 0,0 mm 0,3 km/h (0 Bft) S-SO 157 5 min 3,4 C 0,0 km/h (0 Bft)
19.04.2016 10:55 8,2 C 12,7 C 77 % 1024,0 hPa 0,0 mm 0,3 km/h (0 Bft) S 180 5 min 4,4 C 0,0 km/h (0 Bft)
19.04.2016 11:00 8,9 C 15,7 C 76 % 1024,0 hPa 0,0 mm 1,5 km/h (1 Bft) N-NW 337 5 min 4,9 C 6,3 km/h (2 Bft)
19.04.2016 11:05 8,6 C 16,5 C 73 % 1024,0 hPa 0,0 mm 4,8 km/h (1 Bft) SW 225 5 min 4,0 C 6,3 km/h (2 Bft)
19.04.2016 11:10 8,4 C 15,5 C 72 % 1024,4 hPa 0,0 mm 5,1 km/h (1 Bft) SO 135 5 min 3,7 C 0,0 km/h (0 Bft)
19.04.2016 11:15 8,9 C 16,1 C 69 % 1024,4 hPa 0,0 mm 5,1 km/h (1 Bft) N-NW 337 5 min 3,5 C 9,8 km/h (2 Bft)
19.04.2016 11:20 8,9 C 15,3 C 69 % 1024,4 hPa 0,0 mm 5,4 km/h (1 Bft) O-NO 67 5 min 3,5 C 5,4 km/h (1 Bft)
19.04.2016 11:25 8,6 C 13,3 C 69 % 1024,4 hPa 0,0 mm 6,6 km/h (2 Bft) NO 45 5 min 3,2 C 6,3 km/h (2 Bft)
19.04.2016 11:30 8,6 C 12,5 C 69 % 1024,8 hPa 0,0 mm 5,4 km/h (1 Bft) O-NO 67 5 min 3,2 C 9,2 km/h (2 Bft)
19.04.2016 11:35 8,4 C 11,3 C 69 % 1024,8 hPa 0,0 mm 5,1 km/h (1 Bft) N-NW 337 5 min 3,0 C 9,2 km/h (2 Bft)
19.04.2016 11:40 8,2 C 10,5 C 69 % 1024,8 hPa 0,0 mm 6,9 km/h (2 Bft) NO 45 0 min 2,9 C 5,7 km/h (1 Bft)
19.04.2016 11:45 8,1 C 10,2 C 69 % 1024,8 hPa 0,0 mm 5,7 km/h (1 Bft) NO 45 0 min 2,8 C 0,0 km/h (0 Bft)
19.04.2016 11:50 8,6 C 12,1 C 69 % 1024,8 hPa 0,0 mm 4,2 km/h (1 Bft) N-NO 22 0 min 3,2 C 7,2 km/h (2 Bft)
19.04.2016 11:55 10,2 C 16,0 C 68 % 1024,8 hPa 0,0 mm 2,1 km/h (1 Bft) S-SO 157 5 min 4,6 C 0,0 km/h (0 Bft)
19.04.2016 12:00 10,8 C 17,4 C 66 % 1024,8 hPa 0,0 mm 2,7 km/h (1 Bft) O-NO 67 5 min 4,7 C 8,0 km/h (2 Bft)
19.04.2016 12:05 10,6 C 17,6 C 65 % 1024,8 hPa 0,0 mm 3,9 km/h (1 Bft) O-NO 67 5 min 4,3 C 5,1 km/h (1 Bft)
19.04.2016 12:10 10,6 C 18,7 C 63 % 1025,2 hPa 0,0 mm 4,5 km/h (1 Bft) N-NO 22 5 min 3,9 C 0,0 km/h (0 Bft)
19.04.2016 12:15 10,6 C 18,2 C 64 % 1025,2 hPa 0,0 mm 3,3 km/h (1 Bft) NW 315 5 min 4,1 C 6,3 km/h (2 Bft)
19.04.2016 12:20 10,2 C 16,3 C 64 % 1025,2 hPa 0,0 mm 5,1 km/h (1 Bft) NW 315 5 min 3,7 C 14,3 km/h (3 Bft)
19.04.2016 12:25 9,5 C 13,8 C 63 % 1025,2 hPa 0,0 mm 9,8 km/h (2 Bft) NW 315 5 min 2,8 C 18,5 km/h (3 Bft)
19.04.2016 12:30 9,3 C 12,2 C 64 % 1025,0 hPa 0,0 mm 10,1 km/h (2 Bft) N-NO 22 5 min 2,8 C 6,3 km/h (2 Bft)
19.04.2016 12:35 9,3 C 11,6 C 64 % 1025,0 hPa 0,0 mm 5,7 km/h (1 Bft) NO 45 0 min 2,8 C 3,3 km/h (1 Bft)
19.04.2016 12:40 9,3 C 11,6 C 63 % 1025,0 hPa 0,0 mm 4,5 km/h (1 Bft) NO 45 0 min 2,6 C 8,3 km/h (2 Bft)
19.04.2016 12:45 9,2 C 11,5 C 63 % 1025,0 hPa 0,0 mm 8,0 km/h (2 Bft) W 270 0 min 2,5 C 14,0 km/h (3 Bft)
19.04.2016 12:50 9,3 C 11,7 C 63 % 1024,9 hPa 0,0 mm 8,6 km/h (2 Bft) N-NW 337 0 min 2,6 C 13,1 km/h (3 Bft)
19.04.2016 12:55 9,3 C 12,0 C 63 % 1024,9 hPa 0,0 mm 7,7 km/h (2 Bft) W-NW 292 0 min 2,6 C 0,0 km/h (0 Bft)
19.04.2016 13:00 9,3 C 12,6 C 63 % 1024,9 hPa 0,0 mm 6,6 km/h (2 Bft) O-NO 67 0 min 2,6 C 9,2 km/h (2 Bft)
19.04.2016 13:05 9,3 C 12,7 C 63 % 1024,9 hPa 0,0 mm 4,8 km/h (1 Bft) W 270 5 min 2,6 C 9,5 km/h (2 Bft)
19.04.2016 13:10 9,3 C 12,9 C 63 % 1024,4 hPa 0,0 mm 5,7 km/h (1 Bft) NO 45 5 min 2,6 C 8,6 km/h (2 Bft)
19.04.2016 13:15 9,3 C 14,1 C 63 % 1024,4 hPa 0,0 mm 4,8 km/h (1 Bft) W-NW 292 5 min 2,6 C 0,0 km/h (0 Bft)
19.04.2016 13:20 10,4 C 15,0 C 60 % 1024,4 hPa 0,0 mm 6,0 km/h (2 Bft) N-NW 337 0 min 3,0 C 6,9 km/h (2 Bft)
19.04.2016 13:25 11,1 C 16,5 C 59 % 1024,4 hPa 0,0 mm 7,7 km/h (2 Bft) N-NW 337 5 min 3,4 C 11,3 km/h (2 Bft)
19.04.2016 13:30 11,1 C 16,2 C 59 % 1024,4 hPa 0,0 mm 7,2 km/h (2 Bft) N-NW 337 5 min 3,4 C 6,3 km/h (2 Bft)
19.04.2016 13:33 10,7 C 14,1 C 59 % 1024,4 hPa 0,0 mm 6,0 km/h (2 Bft) SW 225 3 min 3,0 C 9,5 km/h (2 Bft)
19.04.2016 13:34 10,7 C 14,1 C 59 % 1024,4 hPa 0,0 mm 6,0 km/h (2 Bft) SW 225 1 min 3,0 C 9,5 km/h (2 Bft)
19.04.2016 13:35 10,7 C 14,1 C 59 % 1024,4 hPa 0,0 mm 6,0 km/h (2 Bft) SW 225 1 min 3,0 C 9,5 km/h (2 Bft)
19.04.2016 13:40 9,9 C 13,0 C 60 % 1024,4 hPa 0,0 mm 6,9 km/h (2 Bft) NW 315 5 min 2,5 C 16,4 km/h (3 Bft)
19.04.2016 13:45 9,8 C 11,8 C 60 % 1024,4 hPa 0,0 mm 8,9 km/h (2 Bft) NW 315 0 min 2,4 C 9,8 km/h (2 Bft)
19.04.2016 13:50 9,8 C 11,6 C 60 % 1024,2 hPa 0,0 mm 9,2 km/h (2 Bft) N-NW 337 0 min 2,4 C 8,3 km/h (2 Bft)
19.04.2016 13:55 10,6 C 13,7 C 60 % 1024,2 hPa 0,0 mm 8,0 km/h (2 Bft) N-NW 337 0 min 3,2 C 4,8 km/h (1 Bft)
19.04.2016 14:00 10,6 C 13,4 C 60 % 1024,2 hPa 0,0 mm 6,3 km/h (2 Bft) NW 315 5 min 3,2 C 3,0 km/h (1 Bft)
19.04.2016 14:05 10,4 C 12,5 C 60 % 1024,2 hPa 0,0 mm 3,9 km/h (1 Bft) N-NO 22 0 min 3,0 C 3,9 km/h (1 Bft)
19.04.2016 14:10 10,3 C 11,9 C 60 % 1024,1 hPa 0,0 mm 6,0 km/h (2 Bft) NW 315 0 min 2,9 C 16,4 km/h (3 Bft)
19.04.2016 14:15 10,6 C 12,4 C 60 % 1024,1 hPa 0,0 mm 8,3 km/h (2 Bft) NW 315 0 min 3,2 C 4,5 km/h (1 Bft)
19.04.2016 14:20 10,6 C 14,0 C 60 % 1024,1 hPa 0,0 mm 7,7 km/h (2 Bft) NW 315 0 min 3,2 C 10,7 km/h (2 Bft)
19.04.2016 14:25 10,6 C 15,0 C 60 % 1024,1 hPa 0,0 mm 7,2 km/h (2 Bft) NW 315 5 min 3,2 C 11,0 km/h (2 Bft)
19.04.2016 14:30 10,6 C 13,7 C 60 % 1023,9 hPa 0,0 mm 7,5 km/h (2 Bft) N-NW 337 5 min 3,2 C 7,7 km/h (2 Bft)
19.04.2016 14:35 10,6 C 12,9 C 60 % 1023,9 hPa 0,0 mm 6,3 km/h (2 Bft) NW 315 0 min 3,2 C 9,5 km/h (2 Bft)
19.04.2016 14:40 10,6 C 12,9 C 60 % 1023,9 hPa 0,0 mm 6,9 km/h (2 Bft) W-NW 292 0 min 3,2 C 6,6 km/h (2 Bft)
19.04.2016 14:45 10,6 C 12,4 C 60 % 1023,9 hPa 0,0 mm 6,0 km/h (2 Bft) W-NW 292 0 min 3,2 C 10,7 km/h (2 Bft)
19.04.2016 14:50 10,6 C 12,2 C 60 % 1023,7 hPa 0,0 mm 4,2 km/h (1 Bft) O-NO 67 0 min 3,2 C 5,7 km/h (1 Bft)
19.04.2016 14:55 10,6 C 14,8 C 60 % 1023,7 hPa 0,0 mm 4,8 km/h (1 Bft) W 270 0 min 3,2 C 6,0 km/h (2 Bft)
19.04.2016 15:00 10,6 C 16,5 C 60 % 1023,7 hPa 0,0 mm 5,7 km/h (1 Bft) S 180 5 min 3,2 C 13,4 km/h (3 Bft)
19.04.2016 15:05 10,6 C 16,6 C 60 % 1023,7 hPa 0,0 mm 7,7 km/h (2 Bft) N-NO 22 5 min 3,2 C 16,7 km/h (3 Bft)
19.04.2016 15:10 10,6 C 16,9 C 60 % 1023,5 hPa 0,0 mm 8,3 km/h (2 Bft) W-SW 247 5 min 3,2 C 11,3 km/h (2 Bft)
19.04.2016 15:15 10,6 C 16,5 C 60 % 1023,5 hPa 0,0 mm 10,1 km/h (2 Bft) W 270 5 min 3,2 C 18,8 km/h (3 Bft)
19.04.2016 15:20 10,6 C 16,5 C 60 % 1023,5 hPa 0,0 mm 10,7 km/h (2 Bft) W-NW 292 5 min 3,2 C 12,5 km/h (3 Bft)
19.04.2016 15:25 10,6 C 16,7 C 60 % 1023,5 hPa 0,0 mm 9,8 km/h (2 Bft) N-NW 337 0 min 3,2 C 27,7 km/h (4 Bft)
19.04.2016 15:30 10,6 C 17,4 C 60 % 1023,6 hPa 0,0 mm 9,8 km/h (2 Bft) W-NW 292 5 min 3,2 C 14,3 km/h (3 Bft)
19.04.2016 15:35 12,6 C 17,3 C 53 % 1023,6 hPa 0,0 mm 12,8 km/h (3 Bft) NW 315 5 min 3,3 C 11,6 km/h (2 Bft)
19.04.2016 15:40 12,1 C 16,0 C 53 % 1023,6 hPa 0,0 mm 13,4 km/h (3 Bft) W-NW 292 5 min 2,8 C 17,6 km/h (3 Bft)
19.04.2016 15:45 12,2 C 16,2 C 53 % 1023,6 hPa 0,0 mm 13,4 km/h (3 Bft) NW 315 5 min 2,9 C 17,3 km/h (3 Bft)
19.04.2016 15:50 12,6 C 16,4 C 54 % 1023,4 hPa 0,0 mm 11,9 km/h (2 Bft) W 270 0 min 3,5 C 7,5 km/h (2 Bft)
19.04.2016 15:55 12,3 C 15,3 C 54 % 1023,4 hPa 0,0 mm 9,8 km/h (2 Bft) NW 315 5 min 3,3 C 14,9 km/h (3 Bft)
19.04.2016 16:00 12,3 C 14,0 C 54 % 1023,4 hPa 0,0 mm 9,5 km/h (2 Bft) NW 315 0 min 3,3 C 12,2 km/h (2 Bft)
19.04.2016 16:05 12,2 C 14,6 C 55 % 1023,4 hPa 0,0 mm 12,8 km/h (3 Bft) NW 315 0 min 3,4 C 16,1 km/h (3 Bft)
19.04.2016 16:10 12,2 C 15,6 C 55 % 1023,0 hPa 0,0 mm 14,0 km/h (3 Bft) NW 315 0 min 3,4 C 10,1 km/h (2 Bft)
19.04.2016 16:15 12,9 C 17,0 C 54 % 1023,0 hPa 0,0 mm 11,3 km/h (2 Bft) NW 315 5 min 3,8 C 8,6 km/h (2 Bft)
19.04.2016 16:20 12,8 C 17,3 C 54 % 1023,0 hPa 0,0 mm 9,8 km/h (2 Bft) NO 45 5 min 3,7 C 9,5 km/h (2 Bft)
19.04.2016 16:25 12,0 C 16,1 C 53 % 1023,0 hPa 0,0 mm 9,2 km/h (2 Bft) N-NO 22 5 min 2,7 C 9,8 km/h (2 Bft)
19.04.2016 16:30 11,8 C 15,3 C 53 % 1022,9 hPa 0,0 mm 6,9 km/h (2 Bft) W-NW 292 5 min 2,5 C 3,9 km/h (1 Bft)
19.04.2016 16:33 11,8 C 16,7 C 54 % 1022,9 hPa 0,0 mm 2,4 km/h (1 Bft) W 270 3 min 2,8 C 3,3 km/h (1 Bft)
19.04.2016 16:35 11,8 C 16,7 C 54 % 1022,9 hPa 0,0 mm 2,4 km/h (1 Bft) W 270 2 min 2,8 C 3,3 km/h (1 Bft)
19.04.2016 16:40 11,8 C 18,1 C 54 % 1022,9 hPa 0,0 mm 2,1 km/h (1 Bft) O-SO 112 5 min 2,8 C 4,8 km/h (1 Bft)
19.04.2016 16:45 11,8 C 17,9 C 54 % 1022,9 hPa 0,0 mm 8,6 km/h (2 Bft) W-NW 292 5 min 2,8 C 12,2 km/h (2 Bft)
19.04.2016 16:50 11,8 C 16,8 C 54 % 1022,7 hPa 0,0 mm 12,2 km/h (2 Bft) NW 315 5 min 2,8 C 7,2 km/h (2 Bft)
19.04.2016 16:55 11,8 C 15,9 C 54 % 1022,7 hPa 0,0 mm 11,9 km/h (2 Bft) N-NW 337 5 min 2,8 C 12,2 km/h (2 Bft)
19.04.2016 17:00 11,8 C 15,7 C 54 % 1022,7 hPa 0,0 mm 11,0 km/h (2 Bft) W 270 5 min 2,8 C 18,2 km/h (3 Bft)
19.04.2016 17:05 11,8 C 15,3 C 54 % 1022,7 hPa 0,0 mm 11,9 km/h (2 Bft) SW 225 5 min 2,8 C 18,8 km/h (3 Bft)
19.04.2016 17:10 11,8 C 15,1 C 54 % 1022,6 hPa 0,0 mm 12,2 km/h (2 Bft) W 270 5 min 2,8 C 12,5 km/h (3 Bft)
19.04.2016 17:15 11,8 C 14,6 C 54 % 1022,6 hPa 0,0 mm 11,6 km/h (2 Bft) W-NW 292 0 min 2,8 C 13,4 km/h (3 Bft)
19.04.2016 17:20 11,8 C 14,2 C 54 % 1022,6 hPa 0,0 mm 8,6 km/h (2 Bft) W 270 0 min 2,8 C 10,4 km/h (2 Bft)
19.04.2016 17:25 11,8 C 13,9 C 54 % 1022,6 hPa 0,0 mm 8,0 km/h (2 Bft) SW 225 0 min 2,8 C 6,6 km/h (2 Bft)
19.04.2016 17:30 11,8 C 13,8 C 54 % 1022,6 hPa 0,0 mm 8,0 km/h (2 Bft) NW 315 0 min 2,8 C 9,2 km/h (2 Bft)
19.04.2016 17:35 11,8 C 13,5 C 54 % 1022,6 hPa 0,0 mm 10,4 km/h (2 Bft) NW 315 0 min 2,8 C 8,0 km/h (2 Bft)
19.04.2016 17:40 11,8 C 13,1 C 54 % 1022,6 hPa 0,0 mm 12,5 km/h (3 Bft) NW 315 0 min 2,8 C 10,7 km/h (2 Bft)
19.04.2016 17:45 11,8 C 13,0 C 54 % 1022,6 hPa 0,0 mm 12,2 km/h (2 Bft) NW 315 0 min 2,8 C 11,9 km/h (2 Bft)
19.04.2016 17:50 11,8 C 12,4 C 54 % 1022,7 hPa 0,0 mm 13,1 km/h (3 Bft) N-NO 22 0 min 2,8 C 20,0 km/h (4 Bft)
19.04.2016 17:55 11,6 C 11,8 C 54 % 1022,7 hPa 0,0 mm 13,1 km/h (3 Bft) NW 315 0 min 2,6 C 9,2 km/h (2 Bft)
19.04.2016 18:00 11,5 C 11,9 C 54 % 1022,7 hPa 0,0 mm 11,6 km/h (2 Bft) W-NW 292 0 min 2,5 C 13,7 km/h (3 Bft)
19.04.2016 18:05 11,3 C 12,2 C 54 % 1022,7 hPa 0,0 mm 10,4 km/h (2 Bft) NW 315 0 min 2,3 C 10,7 km/h (2 Bft)
19.04.2016 18:10 11,2 C 12,0 C 54 % 1022,8 hPa 0,0 mm 10,1 km/h (2 Bft) W 270 0 min 2,2 C 11,0 km/h (2 Bft)
19.04.2016 18:15 11,2 C 12,3 C 54 % 1022,8 hPa 0,0 mm 9,5 km/h (2 Bft) NW 315 0 min 2,2 C 8,3 km/h (2 Bft)
19.04.2016 18:20 10,8 C 11,9 C 54 % 1022,8 hPa 0,0 mm 9,2 km/h (2 Bft) NW 315 0 min 1,9 C 6,6 km/h (2 Bft)
19.04.2016 18:25 10,4 C 11,1 C 55 % 1022,8 hPa 0,0 mm 6,9 km/h (2 Bft) W-NW 292 0 min 1,8 C 6,9 km/h (2 Bft)
19.04.2016 18:30 10,3 C 10,7 C 55 % 1022,6 hPa 0,0 mm 5,7 km/h (1 Bft) W 270 0 min 1,7 C 8,3 km/h (2 Bft)
19.04.2016 18:35 10,0 C 10,2 C 55 % 1022,6 hPa 0,0 mm 4,5 km/h (1 Bft) W-NW 292 0 min 1,4 C 3,3 km/h (1 Bft)
19.04.2016 18:40 10,1 C 10,2 C 55 % 1022,6 hPa 0,0 mm 3,0 km/h (1 Bft) NO 45 0 min 1,5 C 5,7 km/h (1 Bft)
19.04.2016 18:45 10,2 C 10,3 C 56 % 1022,6 hPa 0,0 mm 3,6 km/h (1 Bft) NW 315 0 min 1,8 C 5,4 km/h (1 Bft)
19.04.2016 18:50 10,3 C 10,5 C 56 % 1022,8 hPa 0,0 mm 5,1 km/h (1 Bft) N-NW 337 0 min 1,9 C 9,2 km/h (2 Bft)
19.04.2016 18:55 10,4 C 10,5 C 56 % 1022,8 hPa 0,0 mm 6,0 km/h (2 Bft) W 270 0 min 2,0 C 6,6 km/h (2 Bft)
19.04.2016 19:00 10,3 C 10,5 C 56 % 1022,8 hPa 0,0 mm 6,9 km/h (2 Bft) W-NW 292 0 min 1,9 C 9,8 km/h (2 Bft)
19.04.2016 19:05 10,1 C 10,2 C 57 % 1022,8 hPa 0,0 mm 6,3 km/h (2 Bft) W-NW 292 0 min 2,0 C 3,3 km/h (1 Bft)
19.04.2016 19:10 10,0 C 10,1 C 57 % 1022,7 hPa 0,0 mm 5,4 km/h (1 Bft) W-NW 292 0 min 1,9 C 4,2 km/h (1 Bft)
19.04.2016 19:15 9,7 C 9,9 C 57 % 1022,7 hPa 0,0 mm 3,6 km/h (1 Bft) W 270 0 min 1,6 C 4,2 km/h (1 Bft)
19.04.2016 19:20 9,7 C 9,8 C 57 % 1022,7 hPa 0,0 mm 2,7 km/h (1 Bft) W 270 0 min 1,6 C 0,0 km/h (0 Bft)
19.04.2016 19:25 9,7 C 9,7 C 57 % 1022,7 hPa 0,0 mm 3,3 km/h (1 Bft) W-NW 292 0 min 1,6 C 8,6 km/h (2 Bft)
19.04.2016 19:30 9,7 C 9,7 C 57 % 1022,8 hPa 0,0 mm 3,6 km/h (1 Bft) W-NW 292 0 min 1,6 C 4,8 km/h (1 Bft)
19.04.2016 19:33 9,6 C 9,6 C 57 % 1022,8 hPa 0,0 mm 3,6 km/h (1 Bft) W 270 0 min 1,5 C 8,9 km/h (2 Bft)
19.04.2016 19:36 9,6 C 9,6 C 57 % 1022,8 hPa 0,0 mm 3,6 km/h (1 Bft) W 270 0 min 1,5 C 8,9 km/h (2 Bft)
19.04.2016 19:40 9,5 C 9,5 C 57 % 1022,8 hPa 0,0 mm 4,2 km/h (1 Bft) W 270 0 min 1,4 C 5,4 km/h (1 Bft)
19.04.2016 19:45 9,3 C 9,4 C 57 % 1022,8 hPa 0,0 mm 3,6 km/h (1 Bft) W 270 0 min 1,2 C 3,3 km/h (1 Bft)
19.04.2016 19:50 9,2 C 9,2 C 58 % 1022,9 hPa 0,0 mm 3,0 km/h (1 Bft) W-NW 292 0 min 1,4 C 5,4 km/h (1 Bft)
19.04.2016 19:55 9,1 C 9,1 C 58 % 1022,9 hPa 0,0 mm 3,3 km/h (1 Bft) W 270 0 min 1,3 C 4,2 km/h (1 Bft)
19.04.2016 20:00 8,9 C 9,1 C 58 % 1022,9 hPa 0,0 mm 2,7 km/h (1 Bft) W 270 0 min 1,1 C 5,7 km/h (1 Bft)
19.04.2016 20:05 8,7 C 8,9 C 59 % 1022,9 hPa 0,0 mm 1,2 km/h (1 Bft) W-NW 292 0 min 1,1 C 0,0 km/h (0 Bft)
19.04.2016 20:10 8,6 C 8,7 C 59 % 1022,9 hPa 0,0 mm 0,9 km/h (0 Bft) W-NW 292 0 min 1,0 C 3,9 km/h (1 Bft)
19.04.2016 20:15 8,4 C 8,4 C 59 % 1022,9 hPa 0,0 mm 0,6 km/h (0 Bft) W 270 0 min 0,9 C 0,0 km/h (0 Bft)
19.04.2016 20:20 8,4 C 8,3 C 59 % 1022,9 hPa 0,0 mm 1,2 km/h (1 Bft) SW 225 0 min 0,9 C 4,5 km/h (1 Bft)
19.04.2016 20:25 8,1 C 8,1 C 60 % 1022,9 hPa 0,0 mm 2,1 km/h (1 Bft) SW 225 0 min 0,8 C 5,7 km/h (1 Bft)
19.04.2016 20:30 8,1 C 8,0 C 61 % 1023,2 hPa 0,0 mm 3,0 km/h (1 Bft) SW 225 0 min 1,0 C 4,5 km/h (1 Bft)
19.04.2016 20:35 7,7 C 7,6 C 63 % 1023,2 hPa 0,0 mm 3,3 km/h (1 Bft) S 180 0 min 1,1 C 6,9 km/h (2 Bft)
19.04.2016 20:40 7,6 C 7,5 C 64 % 1023,2 hPa 0,0 mm 3,6 km/h (1 Bft) SO 135 0 min 1,2 C 5,7 km/h (1 Bft)
19.04.2016 20:45 7,3 C 7,3 C 66 % 1023,2 hPa 0,0 mm 3,9 km/h (1 Bft) S-SO 157 0 min 1,4 C 3,6 km/h (1 Bft)
19.04.2016 20:50 7,3 C 7,2 C 66 % 1023,4 hPa 0,0 mm 3,3 km/h (1 Bft) S 180 0 min 1,4 C 3,9 km/h (1 Bft)
19.04.2016 20:55 7,1 C 7,1 C 66 % 1023,4 hPa 0,0 mm 3,6 km/h (1 Bft) S-SO 157 0 min 1,2 C 4,5 km/h (1 Bft)
19.04.2016 21:00 7,0 C 7,0 C 66 % 1023,4 hPa 0,0 mm 3,9 km/h (1 Bft) S 180 0 min 1,1 C 5,1 km/h (1 Bft)
19.04.2016 21:05 6,8 C 7,1 C 70 % 1023,4 hPa 0,0 mm 4,2 km/h (1 Bft) S-SO 157 0 min 1,7 C 4,5 km/h (1 Bft)
19.04.2016 21:10 6,7 C 7,1 C 70 % 1023,4 hPa 0,0 mm 3,9 km/h (1 Bft) S-SO 157 0 min 1,6 C 3,6 km/h (1 Bft)
19.04.2016 21:15 6,6 C 6,9 C 70 % 1023,4 hPa 0,0 mm 1,8 km/h (1 Bft) SO 135 0 min 1,5 C 0,0 km/h (0 Bft)
19.04.2016 21:20 6,7 C 6,9 C 70 % 1023,4 hPa 0,0 mm 0,9 km/h (0 Bft) SO 135 0 min 1,6 C 3,0 km/h (1 Bft)
19.04.2016 21:25 6,8 C 6,8 C 71 % 1023,4 hPa 0,0 mm 0,6 km/h (0 Bft) S 180 0 min 1,9 C 3,0 km/h (1 Bft)
19.04.2016 21:30 6,8 C 6,8 C 71 % 1023,4 hPa 0,0 mm 0,6 km/h (0 Bft) S-SO 157 0 min 1,9 C 0,0 km/h (0 Bft)
19.04.2016 21:35 6,5 C 6,5 C 72 % 1023,4 hPa 0,0 mm 0,6 km/h (0 Bft) S-SO 157 0 min 1,8 C 0,0 km/h (0 Bft)
19.04.2016 21:40 6,4 C 6,4 C 73 % 1023,4 hPa 0,0 mm 0,6 km/h (0 Bft) SO 135 0 min 1,9 C 0,0 km/h (0 Bft)
19.04.2016 21:45 6,2 C 6,1 C 74 % 1023,4 hPa 0,0 mm 0,0 km/h (0 Bft) S 180 0 min 1,9 C 0,0 km/h (0 Bft)
19.04.2016 21:50 6,1 C 6,0 C 74 % 1023,8 hPa 0,0 mm 0,0 km/h (0 Bft) S 180 0 min 1,8 C 0,0 km/h (0 Bft)
19.04.2016 21:55 6,0 C 5,8 C 75 % 1023,8 hPa 0,0 mm 0,0 km/h (0 Bft) SO 135 0 min 1,9 C 0,0 km/h (0 Bft)
19.04.2016 22:00 5,9 C 5,7 C 76 % 1023,8 hPa 0,0 mm 0,0 km/h (0 Bft) SO 135 0 min 2,0 C 0,0 km/h (0 Bft)
19.04.2016 22:05 5,8 C 5,6 C 76 % 1023,8 hPa 0,0 mm 0,0 km/h (0 Bft) S-SO 157 0 min 1,9 C 0,0 km/h (0 Bft)
19.04.2016 22:10 5,7 C 5,5 C 77 % 1023,9 hPa 0,0 mm 0,0 km/h (0 Bft) S-SO 157 0 min 2,0 C 0,0 km/h (0 Bft)
19.04.2016 22:15 5,8 C 5,6 C 78 % 1023,9 hPa 0,0 mm 2,7 km/h (1 Bft) O-NO 67 0 min 2,3 C 0,0 km/h (0 Bft)
19.04.2016 22:20 6,1 C 5,8 C 77 % 1023,9 hPa 0,0 mm 3,6 km/h (1 Bft) SO 135 0 min 2,4 C 0,0 km/h (0 Bft)
19.04.2016 22:25 5,8 C 5,7 C 76 % 1023,9 hPa 0,0 mm 1,2 km/h (1 Bft) S-SO 157 0 min 1,9 C 0,0 km/h (0 Bft)
19.04.2016 22:30 5,9 C 5,7 C 76 % 1024,0 hPa 0,0 mm 0,9 km/h (0 Bft) S 180 0 min 2,0 C 3,0 km/h (1 Bft)
19.04.2016 22:35 6,0 C 5,8 C 75 % 1024,0 hPa 0,0 mm 0,0 km/h (0 Bft) O 90 0 min 1,9 C 0,0 km/h (0 Bft)
19.04.2016 22:37 0,0 C 5,8 C 75 % 1024,0 hPa 0,0 mm 0,0 km/h (0 Bft) O 90 0 min -3,9 C 0,0 km/h (0 Bft)
19.04.2016 22:40 0,0 C 5,8 C 74 % 1024,0 hPa 0,0 mm 0,0 km/h (0 Bft) SO 135 0 min -4,1 C 0,0 km/h (0 Bft)
19.04.2016 22:45 0,0 C 5,7 C 75 % 1024,0 hPa 0,0 mm 0,0 km/h (0 Bft) N-NO 22 0 min -3,9 C 0,0 km/h (0 Bft)
19.04.2016 22:50 0,0 C 5,7 C 75 % 1024,1 hPa 0,0 mm 0,0 km/h (0 Bft) N 360 0 min -3,9 C 0,0 km/h (0 Bft)
19.04.2016 22:55 0,0 C 5,7 C 75 % 1024,1 hPa 0,0 mm 0,0 km/h (0 Bft) NW 315 0 min -3,9 C 0,0 km/h (0 Bft)
19.04.2016 23:00 0,0 C 5,7 C 75 % 1024,1 hPa 0,0 mm 0,0 km/h (0 Bft) SO 135 0 min -3,9 C 0,0 km/h (0 Bft)
19.04.2016 23:05 0,0 C 5,7 C 75 % 1024,1 hPa 0,0 mm 0,3 km/h (0 Bft) S-SO 157 0 min -3,9 C 0,0 km/h (0 Bft)
19.04.2016 23:10 0,0 C 5,7 C 75 % 1024,4 hPa 0,0 mm 0,6 km/h (0 Bft) SO 135 0 min -3,9 C 4,5 km/h (1 Bft)
19.04.2016 23:15 0,0 C 5,5 C 75 % 1024,4 hPa 0,0 mm 0,6 km/h (0 Bft) O-SO 112 0 min -3,9 C 3,9 km/h (1 Bft)
19.04.2016 23:20 5,4 C 5,3 C 75 % 1024,4 hPa 0,0 mm 0,3 km/h (0 Bft) S-SO 157 0 min 1,3 C 3,3 km/h (1 Bft)
19.04.2016 23:25 5,3 C 5,2 C 75 % 1024,4 hPa 0,0 mm 0,9 km/h (0 Bft) S-SO 157 0 min 1,2 C 0,0 km/h (0 Bft)
19.04.2016 23:30 5,3 C 5,2 C 75 % 1024,6 hPa 0,0 mm 0,9 km/h (0 Bft) SO 135 0 min 1,2 C 0,0 km/h (0 Bft)
19.04.2016 23:35 5,2 C 5,0 C 75 % 1024,6 hPa 0,0 mm 1,2 km/h (1 Bft) W-NW 292 0 min 1,1 C 0,0 km/h (0 Bft)
19.04.2016 23:40 5,3 C 5,1 C 75 % 1024,6 hPa 0,0 mm 1,2 km/h (1 Bft) S-SO 157 0 min 1,2 C 0,0 km/h (0 Bft)
19.04.2016 23:45 5,3 C 5,1 C 75 % 1024,6 hPa 0,0 mm 0,6 km/h (0 Bft) S 180 0 min 1,2 C 0,0 km/h (0 Bft)
19.04.2016 23:50 5,2 C 5,1 C 75 % 1024,9 hPa 0,0 mm 0,6 km/h (0 Bft) S-SO 157 0 min 1,1 C 0,0 km/h (0 Bft)
19.04.2016 23:55 5,2 C 5,2 C 75 % 1024,9 hPa 0,0 mm 0,3 km/h (0 Bft) S 180 0 min 1,1 C 0,0 km/h (0 Bft)
_ Min-Zeit 23:15 01:10 16:30 00:25 - 23:00 - - - 22:40 23:55
Minimum _ 0,0 C 2,9 C 53 % 1021,4 hPa - 0,0 km/h (0 Bft) - - - -4,1 C 0,0 km/h (0 Bft)
_ Max-Zeit 16:15 12:10 07:15 12:25 23:55 16:10 - - 17:10 11:00 15:25
Maximum _ 12,9 C 18,7 C 92 % 1025,2 hPa 0,0 mm 14,0 km/h
NW (3 Bft)
- - 5 min 4,9 C 27,7 km/h
N-NW (4 Bft)
Durchschnitt _ 6,8 C 8,3 C 75 % 1023,1 hPa #0,0 mm 4,3 km/h (1 Bft) NW - #4:30 h 2,3 C 5,3 km/h (1 Bft)